Hourly Weather Roundup
Issued by NWS Central Illinois

Home | Current Version | Previous Version | Text Only | Print | Product List | Glossary On
Versions: 1 2 3 4 5 6 7 8 9 10 11 12 13 14 15 16 17 18 19 20 21 22 23 24 25 26 27 28 29 30 31 32 33 34 35 36 37 38 39 40 41 42 43 44 45 46 47 48 49 50
000
NZUS43 KILX 270310
HWRILX

Area Weather Roundup
National Weather Service Lincoln IL
1000 PM CDT WED JUL 26 2017

NOTE:  "FAIR" indicates few or no clouds below 12,000 feet, with
       no sigificant weather and/or obstructions to visibility.


CITY           SKY/WX    TMP DP  RH WIND       PRES   REMARKS
Bloomington    TSTM      72  70  94 NW16      30.04R FOG
Champaign      LGT RAIN  79  77  94 CALM      30.00R FOG     HX  83
Danville       CLOUDY    76  74  95 CALM      29.96S
Decatur        LGT RAIN  80  78  94 CALM      29.99R HX  88
Effingham      CLOUDY    80  75  85 CALM      29.99F HX  84
Flora          PTCLDY    79  76  91 CALM      29.99S HX  83
Galesburg      CLOUDY    72  72  99 E3        29.98S
Jacksonville   TSTM      75  73  91 CALM      29.98R
Lacon          RAIN      71  71 100 S6        29.97F
Lawrenceville  PTCLDY    76  74  93 S3        29.99F
Litchfield     CLOUDY    78  73  86 S6        29.97S
$$


CITY           SKY/WX    TMP DP  RH WIND       PRES   REMARKS
Lincoln        TSTM      74  74 100 NW9       30.01R
Macomb         LGT RAIN  73  72  95 W3        29.99R
Mattoon        CLOUDY    79  76  90 S8        29.98R HX  83
Mt Carmel AP   CLOUDY    76  73  90 SE3       29.99F
Olney-Noble AP MOCLDY    76  74  92 CALM      29.99F
Paris AP       CLOUDY    78  77  98 CALM      29.99S
Peoria         CLOUDY    72  72 100 CALM      29.99R
Pontiac        HVY RAIN  73  73  99 W15       30.02R
Rantoul        LGT RAIN  80  79  97 CALM      29.99R HX  85
Robinson       MOCLDY    74  72  93 CALM      30.00F
Springfield    TSTM      76  75  97 N32G40    29.98R VSB 1/2
Taylorville    CLOUDY    80  78  94 CALM      29.96F HX  86
$$

...REGIONAL REPORTS...


CITY           SKY/WX    TMP DP  RH WIND       PRES   REMARKS
Chicago O`Hare CLOUDY    79  70  74 S9        29.96F HX  82
Kankakee       CLOUDY    77  73  88 SE6       29.98F
Moline         CLOUDY    73  70  90 S3        29.95S
Mount Sterling CLOUDY    74  72  93 CALM      29.96S
Mount Vernon   CLOUDY    79  76  90 CALM      29.98F HX  83
Pittsfield     CLOUDY    78  76  94 CALM      29.97S HX  80
Quincy         CLOUDY    77  75  93 NE3       29.96F
Rockford       LGT RAIN  74  71  91 S7        29.99R
$$


CITY           SKY/WX    TMP DP  RH WIND       PRES   REMARKS
Burlington     CLOUDY    74  74 100 SW5       29.96F
Cedar Rapids   NOT AVBL
Des Moines     CLOUDY    75  73  93 N5        29.97R
Kirksville     CLOUDY    77  73  87 CALM      29.98R
Ottumwa        CLOUDY    77  73  87 CALM      29.96S
St Louis       MOCLDY    87  72  60 S5        29.96F HX  93
$$


CITY           SKY/WX    TMP DP  RH WIND       PRES   REMARKS
Terre Haute    MOCLDY    80  75  84 SE5       29.98F HX  85
Evansville     CLOUDY    78  72  81 CALM      30.00F HX  80
Indianapolis   MOCLDY    78  71  79 SE6       30.01R HX  80
Lafayette      CLOUDY    76  73  91 CALM      29.99R
Madison        CLOUDY    70  69  97 CALM      29.98R
Milwaukee      CLOUDY    73  70  90 SE5       29.97S
$$





USA.gov is the U.S. government's official web portal to all federal, state and local government web resources and services.